Location: Amherst
(42.5000°N, 72.5000°W)
Time: 07:59:45
(UTC-04:00)

ISS - Pass Details

Date: 12 July 2018
Orbit: 402 x 408 km, 51.6° (Epoch: 21 July)

Event Time Altitude Azimuth Distance (km) Brightness Sun altitude
Rises 04:33:36 0° 299° (WNW) 2,333 -0.2 -8.3°
Reaches altitude 10° 04:36:13 10° 321° (NW) 1,473 -1.0 -7.9°
Maximum altitude 04:38:27 17° 3° (N) 1,134 -0.9 -7.6°
Drops below altitude 10° 04:40:41 10° 46° (NE) 1,474 0.8 -7.3°
Sets 04:43:19 0° 68° (ENE) 2,335 1.8 -6.9°
